Time,TemperatureF,DewpointF,PressureIn,WindDirection,WindDirectionDegrees,WindSpeedMPH,WindSpeedGustMPH,Humidity,HourlyPrecipIn,Conditions,Clouds,dailyrainin,SoftwareType,DateUTC
2013-03-30 00:02:00,40.9,20.6,30.09,NE,52,2.0,2.0,44,0.00,,,0.00,Wunderground PWS Mod,2013-03-30 06:02:00,
2013-03-30 00:09:00,40.8,20.5,30.09,NE,45,1.0,2.0,44,0.00,,,0.00,Wunderground PWS Mod,2013-03-30 06:09:00,
2013-03-30 00:15:00,40.6,20.4,30.09,NE,52,1.0,2.0,44,0.00,,,0.00,Wunderground PWS Mod,2013-03-30 06:15:00,
2013-03-30 00:20:00,41.1,20.3,30.09,NE,50,1.0,2.0,43,0.00,,,0.00,Wunderground PWS Mod,2013-03-30 06:20:00,
2013-03-30 00:25:00,41.3,19.9,30.09,NE,49,1.0,2.0,42,0.00,,,0.00,Wunderground PWS Mod,2013-03-30 06:25:00,
2013-03-30 00:32:00,42.6,19.9,30.09,NE,39,2.0,2.0,40,0.00,,,0.00,Wunderground PWS Mod,2013-03-30 06:32:00,
2013-03-30 00:37:00,43.1,19.8,30.09,NE,39,2.0,2.0,39,0.00,,,0.00,Wunderground PWS Mod,2013-03-30 06:37:00,
2013-03-30 00:42:00,43.1,19.2,30.09,NNE,26,3.0,3.0,38,0.00,,,0.00,Wunderground PWS Mod,2013-03-30 06:42:00,
2013-03-30 00:48:00,42.9,19.6,30.09,NE,45,3.0,4.0,39,0.00,,,0.00,Wunderground PWS Mod,2013-03-30 06:48:00,
2013-03-30 00:53:00,41.8,20.4,30.07,NNE,27,5.0,5.0,42,0.00,,,0.00,Wunderground PWS Mod,2013-03-30 06:53:00,
2013-03-30 00:59:00,41.8,20.4,30.07,NNE,23,4.0,5.0,42,0.00,,,0.00,Wunderground PWS Mod,2013-03-30 06:59:00,
2013-03-30 01:05:00,42.3,20.2,30.08,NNE,26,3.0,4.0,41,0.00,,,0.00,Wunderground PWS Mod,2013-03-30 07:05:00,
2013-03-30 01:11:00,42.8,19.5,30.08,NNE,30,4.0,4.0,39,0.00,,,0.00,Wunderground PWS Mod,2013-03-30 07:11:00,
2013-03-30 01:17:00,42.9,19.6,30.07,NE,40,3.0,4.0,39,0.00,,,0.00,Wunderground PWS Mod,2013-03-30 07:17:00,
2013-03-30 01:23:00,42.8,19.5,30.07,NNE,23,4.0,5.0,39,0.00,,,0.00,Wunderground PWS Mod,2013-03-30 07:23:00,
2013-03-30 01:29:00,42.8,19.5,30.07,NE,39,4.0,4.0,39,0.00,,,0.00,Wunderground PWS Mod,2013-03-30 07:29:00,
2013-03-30 01:35:00,42.9,19.6,30.07,NE,38,4.0,4.0,39,0.00,,,0.00,Wunderground PWS Mod,2013-03-30 07:35:00,
2013-03-30 01:40:00,42.6,19.3,30.07,NNE,30,2.0,4.0,39,0.00,,,0.00,Wunderground PWS Mod,2013-03-30 07:40:00,
2013-03-30 01:45:00,42.5,19.8,30.07,NNE,33,3.0,4.0,40,0.00,,,0.00,Wunderground PWS Mod,2013-03-30 07:45:00,
2013-03-30 01:50:00,42.3,19.7,30.07,NNE,23,4.0,4.0,40,0.00,,,0.00,Wunderground PWS Mod,2013-03-30 07:50:00,
2013-03-30 01:56:00,42.1,19.5,30.07,NE,53,4.0,4.0,40,0.00,,,0.00,Wunderground PWS Mod,2013-03-30 07:56:00,
2013-03-30 02:01:00,41.9,19.9,30.06,NNE,30,4.0,5.0,41,0.00,,,0.00,Wunderground PWS Mod,2013-03-30 08:01:00,
2013-03-30 02:06:00,42.3,19.7,30.06,NE,47,3.0,4.0,40,0.00,,,0.00,Wunderground PWS Mod,2013-03-30 08:06:00,
2013-03-30 02:11:00,42.3,19.7,30.06,NE,43,3.0,5.0,40,0.00,,,0.00,Wunderground PWS Mod,2013-03-30 08:11:00,
2013-03-30 02:16:00,42.3,19.1,30.07,NE,37,3.0,6.0,39,0.00,,,0.00,Wunderground PWS Mod,2013-03-30 08:16:00,
2013-03-30 02:22:00,42.5,19.3,30.07,NE,42,5.0,6.0,39,0.00,,,0.00,Wunderground PWS Mod,2013-03-30 08:22:00,
2013-03-30 02:27:00,42.8,18.9,30.07,ENE,57,3.0,5.0,38,0.00,,,0.00,Wunderground PWS Mod,2013-03-30 08:27:00,
2013-03-30 02:32:00,42.5,19.3,30.05,NE,35,3.0,6.0,39,0.00,,,0.00,Wunderground PWS Mod,2013-03-30 08:32:00,
2013-03-30 02:37:00,42.1,19.5,30.05,NE,50,3.0,5.0,40,0.00,,,0.00,Wunderground PWS Mod,2013-03-30 08:37:00,
2013-03-30 02:42:00,41.6,19.6,30.05,NE,39,3.0,6.0,41,0.00,,,0.00,Wunderground PWS Mod,2013-03-30 08:42:00,
2013-03-30 02:47:00,41.6,19.6,30.06,NNE,30,4.0,4.0,41,0.00,,,0.00,Wunderground PWS Mod,2013-03-30 08:47:00,
2013-03-30 02:52:00,41.6,19.6,30.06,NE,39,3.0,4.0,41,0.00,,,0.00,Wunderground PWS Mod,2013-03-30 08:52:00,
2013-03-30 02:57:00,41.5,19.5,30.06,NE,46,3.0,4.0,41,0.00,,,0.00,Wunderground PWS Mod,2013-03-30 08:57:00,
2013-03-30 03:02:00,41.1,19.7,30.06,NE,41,2.0,4.0,42,0.00,,,0.00,Wunderground PWS Mod,2013-03-30 09:02:00,
2013-03-30 03:07:00,40.8,20.0,30.06,NE,39,3.0,4.0,43,0.00,,,0.00,Wunderground PWS Mod,2013-03-30 09:07:00,
2013-03-30 03:12:00,40.9,20.1,30.06,NE,44,3.0,4.0,43,0.00,,,0.00,Wunderground PWS Mod,2013-03-30 09:12:00,
2013-03-30 03:17:00,41.2,19.8,30.09,NE,41,3.0,5.0,42,0.00,,,0.00,Wunderground PWS Mod,2013-03-30 09:17:00,
2013-03-30 03:22:00,41.5,19.5,30.09,NE,45,3.0,5.0,41,0.00,,,0.00,Wunderground PWS Mod,2013-03-30 09:22:00,
2013-03-30 03:27:00,41.8,19.8,30.09,NE,54,3.0,5.0,41,0.00,,,0.00,Wunderground PWS Mod,2013-03-30 09:27:00,
2013-03-30 03:32:00,41.9,19.9,30.07,NE,37,3.0,4.0,41,0.00,,,0.00,Wunderground PWS Mod,2013-03-30 09:32:00,
2013-03-30 03:34:00,41.9,19.9,30.07,NE,50,4.0,4.0,41,0.00,,,0.00,Wunderground PWS Mod,2013-03-30 09:34:00,
2013-03-30 03:39:00,41.9,19.9,30.07,NE,46,4.0,5.0,41,0.00,,,0.00,Wunderground PWS Mod,2013-03-30 09:39:00,
2013-03-30 03:44:00,41.9,19.9,30.07,NE,39,3.0,5.0,41,0.00,,,0.00,Wunderground PWS Mod,2013-03-30 09:44:00,
2013-03-30 03:49:00,41.5,20.1,30.07,NE,35,2.0,4.0,42,0.00,,,0.00,Wunderground PWS Mod,2013-03-30 09:49:00,
2013-03-30 03:54:00,41.2,19.8,30.07,NNE,32,2.0,4.0,42,0.00,,,0.00,Wunderground PWS Mod,2013-03-30 09:54:00,
2013-03-30 03:59:00,41.1,20.3,30.07,NE,37,3.0,4.0,43,0.00,,,0.00,Wunderground PWS Mod,2013-03-30 09:59:00,
2013-03-30 04:04:00,41.1,20.3,30.08,NNE,32,4.0,4.0,43,0.00,,,0.00,Wunderground PWS Mod,2013-03-30 10:04:00,
2013-03-30 04:09:00,41.6,20.2,30.08,NNE,27,3.0,5.0,42,0.00,,,0.00,Wunderground PWS Mod,2013-03-30 10:09:00,
2013-03-30 04:14:00,41.9,19.9,30.08,NNE,28,4.0,4.0,41,0.00,,,0.00,Wunderground PWS Mod,2013-03-30 10:14:00,
2013-03-30 04:19:00,42.2,20.2,30.04,NE,34,4.0,4.0,41,0.00,,,0.00,Wunderground PWS Mod,2013-03-30 10:19:00,
2013-03-30 04:24:00,42.2,20.2,30.04,NNE,25,2.0,4.0,41,0.00,,,0.00,Wunderground PWS Mod,2013-03-30 10:24:00,
2013-03-30 04:30:00,42.1,20.1,30.03,NE,34,3.0,3.0,41,0.00,,,0.00,Wunderground PWS Mod,2013-03-30 10:30:00,
2013-03-30 04:35:00,41.9,20.4,30.03,NNE,30,3.0,4.0,42,0.00,,,0.00,Wunderground PWS Mod,2013-03-30 10:35:00,
2013-03-30 04:40:00,41.9,20.4,30.03,NNE,33,2.0,4.0,42,0.00,,,0.00,Wunderground PWS Mod,2013-03-30 10:40:00,
2013-03-30 04:45:00,41.8,20.4,30.04,NE,37,3.0,4.0,42,0.00,,,0.00,Wunderground PWS Mod,2013-03-30 10:45:00,
2013-03-30 04:50:00,41.8,20.4,30.04,NNE,33,3.0,5.0,42,0.00,,,0.00,Wunderground PWS Mod,2013-03-30 10:50:00,
2013-03-30 04:55:00,41.8,20.4,30.04,NE,42,3.0,3.0,42,0.00,,,0.00,Wunderground PWS Mod,2013-03-30 10:55:00,
2013-03-30 05:00:00,42.1,21.2,30.03,NE,40,2.0,3.0,43,0.00,,,0.00,Wunderground PWS Mod,2013-03-30 11:00:00,
2013-03-30 05:05:00,42.3,20.8,30.03,NE,51,3.0,3.0,42,0.00,,,0.00,Wunderground PWS Mod,2013-03-30 11:05:00,
2013-03-30 05:10:00,42.5,21.0,30.03,NE,42,1.0,2.0,42,0.00,,,0.00,Wunderground PWS Mod,2013-03-30 11:10:00,
2013-03-30 05:15:00,42.2,21.3,30.05,SW,231,0.0,2.0,43,0.00,,,0.00,Wunderground PWS Mod,2013-03-30 11:15:00,
2013-03-30 05:20:00,41.9,21.0,30.05,SW,229,0.0,1.0,43,0.00,,,0.00,Wunderground PWS Mod,2013-03-30 11:20:00,
2013-03-30 05:25:00,41.6,21.8,30.05,SW,235,1.0,1.0,45,0.00,,,0.00,Wunderground PWS Mod,2013-03-30 11:25:00,
2013-03-30 05:30:00,40.9,21.7,30.06,NNW,328,3.0,3.0,46,0.00,,,0.00,Wunderground PWS Mod,2013-03-30 11:30:00,
2013-03-30 05:35:00,40.8,21.6,30.06,NNW,328,3.0,3.0,46,0.00,,,0.00,Wunderground PWS Mod,2013-03-30 11:35:00,
2013-03-30 05:40:00,40.9,21.7,30.06,NNW,328,1.0,2.0,46,0.00,,,0.00,Wunderground PWS Mod,2013-03-30 11:40:00,
2013-03-30 05:45:00,40.8,21.6,30.07,NNW,328,2.0,2.0,46,0.00,,,0.00,Wunderground PWS Mod,2013-03-30 11:45:00,
2013-03-30 05:50:00,40.3,21.6,30.07,NNW,330,2.0,2.0,47,0.00,,,0.00,Wunderground PWS Mod,2013-03-30 11:50:00,
2013-03-30 05:55:00,38.8,20.8,30.07,NNE,18,1.0,2.0,48,0.00,,,0.00,Wunderground PWS Mod,2013-03-30 11:55:00,
2013-03-30 06:00:00,38.0,21.5,30.09,NNE,33,2.0,2.0,51,0.00,,,0.00,Wunderground PWS Mod,2013-03-30 12:00:00,
2013-03-30 06:05:00,38.3,21.7,30.09,SW,219,1.0,2.0,51,0.00,,,0.00,Wunderground PWS Mod,2013-03-30 12:05:00,
2013-03-30 06:10:00,38.0,21.5,30.09,SW,214,0.0,1.0,51,0.00,,,0.00,Wunderground PWS Mod,2013-03-30 12:10:00,
2013-03-30 06:15:00,37.9,20.9,30.12,East,83,2.0,2.0,50,0.00,,,0.00,Wunderground PWS Mod,2013-03-30 12:15:00,
2013-03-30 06:20:00,37.2,21.2,30.12,NE,46,2.0,3.0,52,0.00,,,0.00,Wunderground PWS Mod,2013-03-30 12:20:00,
2013-03-30 06:25:00,36.6,21.1,30.12,NE,36,3.0,4.0,53,0.00,,,0.00,Wunderground PWS Mod,2013-03-30 12:25:00,
2013-03-30 06:30:00,37.3,21.3,30.11,NE,45,2.0,3.0,52,0.00,,,0.00,Wunderground PWS Mod,2013-03-30 12:30:00,
2013-03-30 06:35:00,37.8,21.3,30.11,NE,40,2.0,3.0,51,0.00,,,0.00,Wunderground PWS Mod,2013-03-30 12:35:00,
2013-03-30 06:40:00,38.0,21.9,30.11,NE,34,3.0,4.0,52,0.00,,,0.00,Wunderground PWS Mod,2013-03-30 12:40:00,
2013-03-30 06:45:00,38.9,22.3,30.10,NNE,29,2.0,3.0,51,0.00,,,0.00,Wunderground PWS Mod,2013-03-30 12:45:00,
2013-03-30 06:50:00,39.8,22.2,30.10,NNE,30,2.0,3.0,49,0.00,,,0.00,Wunderground PWS Mod,2013-03-30 12:50:00,
2013-03-30 06:56:00,39.8,22.2,30.10,NE,46,2.0,3.0,49,0.00,,,0.00,Wunderground PWS Mod,2013-03-30 12:56:00,
2013-03-30 07:01:00,39.3,21.7,30.11,WSW,257,1.0,2.0,49,0.00,,,0.00,Wunderground PWS Mod,2013-03-30 13:01:00,
2013-03-30 07:06:00,39.1,22.0,30.11,WSW,256,1.0,2.0,50,0.00,,,0.00,Wunderground PWS Mod,2013-03-30 13:06:00,
2013-03-30 07:11:00,38.8,22.2,30.11,WSW,256,1.0,2.0,51,0.00,,,0.00,Wunderground PWS Mod,2013-03-30 13:11:00,
2013-03-30 07:16:00,38.6,22.0,30.16,WSW,256,0.0,1.0,51,0.00,,,0.00,Wunderground PWS Mod,2013-03-30 13:16:00,
2013-03-30 07:21:00,38.5,21.9,30.16,WSW,256,0.0,1.0,51,0.00,,,0.00,Wunderground PWS Mod,2013-03-30 13:21:00,
2013-03-30 07:26:00,38.3,21.7,30.16,WSW,256,0.0,1.0,51,0.00,,,0.00,Wunderground PWS Mod,2013-03-30 13:26:00,
2013-03-30 07:32:00,38.6,22.5,30.17,North,1,1.0,1.0,52,0.00,,,0.00,Wunderground PWS Mod,2013-03-30 13:32:00,
2013-03-30 07:34:00,38.8,22.7,30.17,NE,45,2.0,3.0,52,0.00,,,0.00,Wunderground PWS Mod,2013-03-30 13:34:00,
2013-03-30 07:37:00,39.1,22.9,30.17,NE,38,2.0,2.0,52,0.00,,,0.00,Wunderground PWS Mod,2013-03-30 13:37:00,
2013-03-30 07:42:00,39.2,23.0,30.17,NE,39,1.0,2.0,52,0.00,,,0.00,Wunderground PWS Mod,2013-03-30 13:42:00,
2013-03-30 07:47:00,39.3,23.1,30.17,NE,46,2.0,3.0,52,0.00,,,0.00,Wunderground PWS Mod,2013-03-30 13:47:00,
2013-03-30 07:52:00,39.5,23.3,30.17,NE,46,1.0,2.0,52,0.00,,,0.00,Wunderground PWS Mod,2013-03-30 13:52:00,
2013-03-30 07:57:00,40.1,23.9,30.17,NE,45,3.0,3.0,52,0.00,,,0.00,Wunderground PWS Mod,2013-03-30 13:57:00,
2013-03-30 08:02:00,41.3,24.5,30.15,NE,45,1.0,3.0,51,0.00,,,0.00,Wunderground PWS Mod,2013-03-30 14:02:00,
2013-03-30 08:07:00,42.8,24.4,30.15,NE,50,2.0,3.0,48,0.00,,,0.00,Wunderground PWS Mod,2013-03-30 14:07:00,
2013-03-30 08:12:00,43.9,24.4,30.15,NE,46,2.0,3.0,46,0.00,,,0.00,Wunderground PWS Mod,2013-03-30 14:12:00,
2013-03-30 08:17:00,44.6,25.1,30.16,NE,49,2.0,3.0,46,0.00,,,0.00,Wunderground PWS Mod,2013-03-30 14:17:00,
2013-03-30 08:22:00,45.4,26.3,30.16,ENE,62,1.0,3.0,47,0.00,,,0.00,Wunderground PWS Mod,2013-03-30 14:22:00,
2013-03-30 08:27:00,46.2,26.0,30.16,NE,49,2.0,3.0,45,0.00,,,0.00,Wunderground PWS Mod,2013-03-30 14:27:00,
2013-03-30 08:32:00,47.1,26.8,30.14,NE,50,1.0,2.0,45,0.00,,,0.00,Wunderground PWS Mod,2013-03-30 14:32:00,
2013-03-30 08:37:00,48.0,26.0,30.14,NE,50,1.0,2.0,42,0.00,,,0.00,Wunderground PWS Mod,2013-03-30 14:37:00,
2013-03-30 08:42:00,48.8,26.1,30.14,SSW,207,2.0,3.0,41,0.00,,,0.00,Wunderground PWS Mod,2013-03-30 14:42:00,
2013-03-30 08:47:00,49.2,26.5,30.11,SW,218,2.0,2.0,41,0.00,,,0.00,Wunderground PWS Mod,2013-03-30 14:47:00,
2013-03-30 08:52:00,49.5,26.1,30.11,South,184,2.0,3.0,40,0.00,,,0.00,Wunderground PWS Mod,2013-03-30 14:52:00,
2013-03-30 08:57:00,49.6,26.2,30.11,South,182,2.0,3.0,40,0.00,,,0.00,Wunderground PWS Mod,2013-03-30 14:57:00,
2013-03-30 09:02:00,49.9,25.9,30.11,South,175,1.0,3.0,39,0.00,,,0.00,Wunderground PWS Mod,2013-03-30 15:02:00,
2013-03-30 09:07:00,50.2,25.5,30.11,SSW,210,2.0,4.0,38,0.00,,,0.00,Wunderground PWS Mod,2013-03-30 15:07:00,
2013-03-30 09:09:00,50.4,25.7,30.11,SSW,203,1.0,2.0,38,0.00,,,0.00,Wunderground PWS Mod,2013-03-30 15:09:00,
2013-03-30 09:12:00,50.7,25.3,30.11,SSW,212,1.0,4.0,37,0.00,,,0.00,Wunderground PWS Mod,2013-03-30 15:12:00,
2013-03-30 09:17:00,51.1,25.7,30.13,SW,225,0.0,2.0,37,0.00,,,0.00,Wunderground PWS Mod,2013-03-30 15:17:00,
2013-03-30 09:23:00,51.7,24.9,30.13,WSW,237,2.0,2.0,35,0.00,,,0.00,Wunderground PWS Mod,2013-03-30 15:23:00,
2013-03-30 09:28:00,52.3,24.7,30.13,WNW,288,2.0,3.0,34,0.00,,,0.00,Wunderground PWS Mod,2013-03-30 15:28:00,
2013-03-30 09:33:00,52.9,24.5,30.11,SW,233,0.0,3.0,33,0.00,,,0.00,Wunderground PWS Mod,2013-03-30 15:33:00,
2013-03-30 09:38:00,53.5,25.1,30.11,West,271,0.0,4.0,33,0.00,,,0.00,Wunderground PWS Mod,2013-03-30 15:38:00,
2013-03-30 09:44:00,54.4,24.4,30.11,WNW,299,1.0,3.0,31,0.00,,,0.00,Wunderground PWS Mod,2013-03-30 15:44:00,
2013-03-30 09:49:00,55.3,25.1,30.09,WNW,293,0.0,3.0,31,0.00,,,0.00,Wunderground PWS Mod,2013-03-30 15:49:00,
2013-03-30 09:55:00,56.2,23.5,30.09,West,281,2.0,2.0,28,0.00,,,0.00,Wunderground PWS Mod,2013-03-30 15:55:00,
2013-03-30 10:00:00,56.9,23.2,30.07,North,358,2.0,2.0,27,0.00,,,0.00,Wunderground PWS Mod,2013-03-30 16:00:00,
2013-03-30 10:05:00,57.2,22.6,30.07,NNE,28,3.0,3.0,26,0.00,,,0.00,Wunderground PWS Mod,2013-03-30 16:05:00,
2013-03-30 10:10:00,57.3,22.7,30.07,NNW,344,3.0,3.0,26,0.00,,,0.00,Wunderground PWS Mod,2013-03-30 16:10:00,
2013-03-30 10:15:00,57.5,23.7,30.08,North,349,3.0,3.0,27,0.00,,,0.00,Wunderground PWS Mod,2013-03-30 16:15:00,
2013-03-30 10:20:00,58.0,23.3,30.08,NNW,329,3.0,3.0,26,0.00,,,0.00,Wunderground PWS Mod,2013-03-30 16:20:00,
2013-03-30 10:25:00,57.6,22.0,30.08,North,352,2.0,6.0,25,0.00,,,0.00,Wunderground PWS Mod,2013-03-30 16:25:00,
2013-03-30 10:30:00,57.8,23.1,30.07,NNW,338,5.0,5.0,26,0.00,,,0.00,Wunderground PWS Mod,2013-03-30 16:30:00,
2013-03-30 10:35:00,57.8,22.2,30.07,NNW,338,4.0,5.0,25,0.00,,,0.00,Wunderground PWS Mod,2013-03-30 16:35:00,
2013-03-30 10:40:00,58.0,23.3,30.07,North,5,3.0,6.0,26,0.00,,,0.00,Wunderground PWS Mod,2013-03-30 16:40:00,
2013-03-30 10:45:00,58.7,22.9,30.07,North,0,6.0,9.0,25,0.00,,,0.00,Wunderground PWS Mod,2013-03-30 16:45:00,
2013-03-30 10:51:00,58.9,22.1,30.07,North,7,2.0,4.0,24,0.00,,,0.00,Wunderground PWS Mod,2013-03-30 16:51:00,
2013-03-30 10:56:00,59.3,21.5,30.07,NNW,342,5.0,9.0,23,0.00,,,0.00,Wunderground PWS Mod,2013-03-30 16:56:00,
2013-03-30 11:01:00,59.3,22.5,30.06,North,349,6.0,6.0,24,0.00,,,0.00,Wunderground PWS Mod,2013-03-30 17:01:00,
2013-03-30 11:06:00,59.6,20.7,30.06,NNW,344,3.0,7.0,22,0.00,,,0.00,Wunderground PWS Mod,2013-03-30 17:06:00,
2013-03-30 11:12:00,59.2,20.3,30.06,NNW,335,5.0,7.0,22,0.00,,,0.00,Wunderground PWS Mod,2013-03-30 17:12:00,
2013-03-30 11:17:00,58.7,17.7,30.08,WSW,245,3.0,6.0,20,0.00,,,0.00,Wunderground PWS Mod,2013-03-30 17:17:00,
2013-03-30 11:22:00,58.7,19.9,30.08,SW,225,3.0,6.0,22,0.00,,,0.00,Wunderground PWS Mod,2013-03-30 17:22:00,
2013-03-30 11:27:00,59.5,20.6,30.08,NNW,339,3.0,9.0,22,0.00,,,0.00,Wunderground PWS Mod,2013-03-30 17:27:00,
2013-03-30 11:32:00,60.7,22.6,30.08,WSW,255,6.0,6.0,23,0.00,,,0.00,Wunderground PWS Mod,2013-03-30 17:32:00,
2013-03-30 11:37:00,61.0,21.8,30.08,NW,311,2.0,5.0,22,0.00,,,0.00,Wunderground PWS Mod,2013-03-30 17:37:00,
2013-03-30 11:42:00,60.1,17.6,30.08,North,351,3.0,11.0,19,0.00,,,0.00,Wunderground PWS Mod,2013-03-30 17:42:00,
2013-03-30 11:47:00,59.0,20.2,30.08,NNW,347,3.0,10.0,22,0.00,,,0.00,Wunderground PWS Mod,2013-03-30 17:47:00,
2013-03-30 11:52:00,59.8,19.7,30.08,WSW,258,3.0,9.0,21,0.00,,,0.00,Wunderground PWS Mod,2013-03-30 17:52:00,
2013-03-30 11:57:00,60.4,21.3,30.08,West,260,4.0,6.0,22,0.00,,,0.00,Wunderground PWS Mod,2013-03-30 17:57:00,
2013-03-30 12:02:00,61.0,19.6,30.06,North,0,5.0,5.0,20,0.00,,,0.00,Wunderground PWS Mod,2013-03-30 18:02:00,
2013-03-30 12:07:00,60.9,20.7,30.06,South,177,2.0,10.0,21,0.00,,,0.00,Wunderground PWS Mod,2013-03-30 18:07:00,
2013-03-30 12:12:00,60.7,20.5,30.06,WNW,300,2.0,7.0,21,0.00,,,0.00,Wunderground PWS Mod,2013-03-30 18:12:00,
2013-03-30 12:17:00,60.4,21.3,30.06,WSW,240,1.0,3.0,22,0.00,,,0.00,Wunderground PWS Mod,2013-03-30 18:17:00,
2013-03-30 12:22:00,59.8,21.9,30.06,NNE,18,4.0,7.0,23,0.00,,,0.00,Wunderground PWS Mod,2013-03-30 18:22:00,
2013-03-30 12:27:00,59.3,19.3,30.06,NNW,346,2.0,13.0,21,0.00,,,0.00,Wunderground PWS Mod,2013-03-30 18:27:00,
2013-03-30 12:32:00,59.2,18.1,30.07,NNW,339,4.0,7.0,20,0.00,,,0.00,Wunderground PWS Mod,2013-03-30 18:32:00,
2013-03-30 12:37:00,59.2,19.2,30.07,West,280,4.0,6.0,21,0.00,,,0.00,Wunderground PWS Mod,2013-03-30 18:37:00,
2013-03-30 12:42:00,59.3,19.3,30.07,WNW,284,2.0,6.0,21,0.00,,,0.00,Wunderground PWS Mod,2013-03-30 18:42:00,
2013-03-30 12:48:00,59.6,19.6,30.06,WSW,251,2.0,5.0,21,0.00,,,0.00,Wunderground PWS Mod,2013-03-30 18:48:00,
2013-03-30 12:53:00,60.4,20.2,30.06,SSW,194,6.0,7.0,21,0.00,,,0.00,Wunderground PWS Mod,2013-03-30 18:53:00,
2013-03-30 12:58:00,60.9,19.5,30.06,WNW,285,5.0,10.0,20,0.00,,,0.00,Wunderground PWS Mod,2013-03-30 18:58:00,
2013-03-30 13:04:00,61.0,20.7,30.06,West,270,6.0,13.0,21,0.00,,,0.00,Wunderground PWS Mod,2013-03-30 19:04:00,
2013-03-30 13:09:00,60.9,20.7,30.04,WSW,252,5.0,10.0,21,0.00,,,0.00,Wunderground PWS Mod,2013-03-30 19:09:00,
2013-03-30 13:14:00,61.6,18.9,30.04,NNW,347,2.0,11.0,19,0.00,,,0.00,Wunderground PWS Mod,2013-03-30 19:14:00,
2013-03-30 13:20:00,60.7,20.5,30.03,WSW,255,2.0,3.0,21,0.00,,,0.00,Wunderground PWS Mod,2013-03-30 19:20:00,
2013-03-30 13:25:00,59.9,20.9,30.03,WSW,258,5.0,6.0,22,0.00,,,0.00,Wunderground PWS Mod,2013-03-30 19:25:00,
2013-03-30 13:30:00,59.5,19.5,30.05,NW,323,2.0,4.0,21,0.00,,,0.00,Wunderground PWS Mod,2013-03-30 19:30:00,
2013-03-30 13:35:00,60.1,22.1,30.05,West,267,2.0,5.0,23,0.00,,,0.00,Wunderground PWS Mod,2013-03-30 19:35:00,
2013-03-30 13:40:00,62.1,22.8,30.05,NW,304,3.0,4.0,22,0.00,,,0.00,Wunderground PWS Mod,2013-03-30 19:40:00,
2013-03-30 13:45:00,62.6,22.1,30.02,West,263,5.0,5.0,21,0.00,,,0.00,Wunderground PWS Mod,2013-03-30 19:45:00,
2013-03-30 13:50:00,62.3,20.7,30.02,NNW,346,3.0,4.0,20,0.00,,,0.00,Wunderground PWS Mod,2013-03-30 19:50:00,
2013-03-30 13:55:00,61.5,22.3,30.02,NW,304,6.0,7.0,22,0.00,,,0.00,Wunderground PWS Mod,2013-03-30 19:55:00,
2013-03-30 14:00:00,60.4,21.3,30.04,West,271,1.0,4.0,22,0.00,,,0.00,Wunderground PWS Mod,2013-03-30 20:00:00,
2013-03-30 14:05:00,60.4,22.4,30.04,SW,227,5.0,10.0,23,0.00,,,0.00,Wunderground PWS Mod,2013-03-30 20:05:00,
2013-03-30 14:10:00,60.9,21.8,30.04,West,278,2.0,2.0,22,0.00,,,0.00,Wunderground PWS Mod,2013-03-30 20:10:00,
2013-03-30 14:15:00,62.1,21.7,30.02,West,278,1.0,2.0,21,0.00,,,0.00,Wunderground PWS Mod,2013-03-30 20:15:00,
2013-03-30 14:20:00,62.3,20.7,30.02,North,352,7.0,7.0,20,0.00,,,0.00,Wunderground PWS Mod,2013-03-30 20:20:00,
2013-03-30 14:25:00,61.0,21.8,30.02,North,356,14.0,17.0,22,0.00,,,0.00,Wunderground PWS Mod,2013-03-30 20:25:00,
2013-03-30 14:30:00,59.2,23.4,30.04,NNE,13,4.0,6.0,25,0.00,,,0.00,Wunderground PWS Mod,2013-03-30 20:30:00,
2013-03-30 14:35:00,59.6,22.7,30.04,NNW,333,9.0,9.0,24,0.00,,,0.00,Wunderground PWS Mod,2013-03-30 20:35:00,
2013-03-30 14:40:00,60.2,21.2,30.04,North,351,5.0,9.0,22,0.00,,,0.00,Wunderground PWS Mod,2013-03-30 20:40:00,
2013-03-30 14:45:00,60.1,22.1,30.04,WNW,292,3.0,9.0,23,0.00,,,0.00,Wunderground PWS Mod,2013-03-30 20:45:00,
2013-03-30 14:50:00,60.2,23.2,30.04,WNW,290,6.0,6.0,24,0.00,,,0.00,Wunderground PWS Mod,2013-03-30 20:50:00,
2013-03-30 14:55:00,60.2,24.2,30.04,WSW,251,3.0,4.0,25,0.00,,,0.00,Wunderground PWS Mod,2013-03-30 20:55:00,
2013-03-30 15:00:00,60.5,22.5,30.02,NW,316,3.0,5.0,23,0.00,,,0.00,Wunderground PWS Mod,2013-03-30 21:00:00,
2013-03-30 15:05:00,60.2,22.2,30.02,SW,233,3.0,4.0,23,0.00,,,0.00,Wunderground PWS Mod,2013-03-30 21:05:00,
2013-03-30 15:10:00,59.9,23.0,30.02,NW,326,4.0,7.0,24,0.00,,,0.00,Wunderground PWS Mod,2013-03-30 21:10:00,
2013-03-30 15:15:00,60.1,23.1,30.03,North,355,3.0,3.0,24,0.00,,,0.00,Wunderground PWS Mod,2013-03-30 21:15:00,
2013-03-30 15:19:00,60.2,22.2,30.03,NNW,338,4.0,9.0,23,0.00,,,0.00,Wunderground PWS Mod,2013-03-30 21:19:00,
2013-03-30 15:20:00,60.4,23.4,30.03,West,273,1.0,4.0,24,0.00,,,0.00,Wunderground PWS Mod,2013-03-30 21:20:00,
2013-03-30 15:25:00,60.7,23.7,30.03,North,356,2.0,5.0,24,0.00,,,0.00,Wunderground PWS Mod,2013-03-30 21:25:00,
2013-03-30 15:30:00,60.9,22.8,30.01,WNW,289,2.0,3.0,23,0.00,,,0.00,Wunderground PWS Mod,2013-03-30 21:30:00,
2013-03-30 15:36:00,61.0,21.8,30.01,NNW,330,8.0,8.0,22,0.00,,,0.00,Wunderground PWS Mod,2013-03-30 21:36:00,
2013-03-30 15:41:00,60.7,21.6,30.01,NW,325,3.0,6.0,22,0.00,,,0.00,Wunderground PWS Mod,2013-03-30 21:41:00,
2013-03-30 15:46:00,62.1,22.8,30.00,NW,311,3.0,5.0,22,0.00,,,0.00,Wunderground PWS Mod,2013-03-30 21:46:00,
2013-03-30 15:51:00,61.2,20.9,30.00,NNW,338,11.0,11.0,21,0.00,,,0.00,Wunderground PWS Mod,2013-03-30 21:51:00,
2013-03-30 15:57:00,59.2,21.4,30.00,NNW,342,3.0,9.0,23,0.00,,,0.00,Wunderground PWS Mod,2013-03-30 21:57:00,
2013-03-30 16:02:00,59.3,20.4,30.02,NNW,336,5.0,12.0,22,0.00,,,0.00,Wunderground PWS Mod,2013-03-30 22:02:00,
2013-03-30 16:07:00,59.9,23.0,30.02,West,269,5.0,7.0,24,0.00,,,0.00,Wunderground PWS Mod,2013-03-30 22:07:00,
2013-03-30 16:12:00,61.0,22.9,30.02,NNW,346,7.0,10.0,23,0.00,,,0.00,Wunderground PWS Mod,2013-03-30 22:12:00,
2013-03-30 16:17:00,61.2,22.0,30.00,SSW,210,2.0,4.0,22,0.00,,,0.00,Wunderground PWS Mod,2013-03-30 22:17:00,
2013-03-30 16:22:00,62.1,22.8,30.00,SW,215,6.0,9.0,22,0.00,,,0.00,Wunderground PWS Mod,2013-03-30 22:22:00,
2013-03-30 16:27:00,62.0,22.7,30.00,WSW,245,0.0,3.0,22,0.00,,,0.00,Wunderground PWS Mod,2013-03-30 22:27:00,
2013-03-30 16:32:00,62.7,22.2,29.98,North,358,10.0,12.0,21,0.00,,,0.00,Wunderground PWS Mod,2013-03-30 22:32:00,
2013-03-30 16:37:00,63.1,20.1,29.98,NW,326,4.0,6.0,19,0.00,,,0.00,Wunderground PWS Mod,2013-03-30 22:37:00,
2013-03-30 16:42:00,63.4,19.1,29.98,NW,318,11.0,13.0,18,0.00,,,0.00,Wunderground PWS Mod,2013-03-30 22:42:00,
2013-03-30 16:49:00,61.8,20.3,29.97,NW,323,5.0,6.0,20,0.00,,,0.00,Wunderground PWS Mod,2013-03-30 22:49:00,
2013-03-30 16:54:00,61.6,20.1,29.97,WSW,256,2.0,11.0,20,0.00,,,0.00,Wunderground PWS Mod,2013-03-30 22:54:00,
2013-03-30 16:59:00,61.5,21.2,29.97,WNW,292,1.0,11.0,21,0.00,,,0.00,Wunderground PWS Mod,2013-03-30 22:59:00,
2013-03-30 17:04:00,61.0,20.7,29.98,West,268,6.0,7.0,21,0.00,,,0.00,Wunderground PWS Mod,2013-03-30 23:04:00,
2013-03-30 17:09:00,60.4,21.3,29.98,West,259,9.0,9.0,22,0.00,,,0.00,Wunderground PWS Mod,2013-03-30 23:09:00,
2013-03-30 17:14:00,60.1,21.1,29.98,NNW,341,5.0,6.0,22,0.00,,,0.00,Wunderground PWS Mod,2013-03-30 23:14:00,
2013-03-30 17:19:00,60.1,21.1,30.01,North,0,2.0,7.0,22,0.00,,,0.00,Wunderground PWS Mod,2013-03-30 23:19:00,
2013-03-30 17:24:00,58.3,20.6,30.01,NW,317,2.0,22.0,23,0.00,,,0.00,Wunderground PWS Mod,2013-03-30 23:24:00,
2013-03-30 17:29:00,58.1,20.4,30.03,North,0,4.0,6.0,23,0.00,,,0.00,Wunderground PWS Mod,2013-03-30 23:29:00,
2013-03-30 17:35:00,58.7,19.9,30.03,SW,236,6.0,9.0,22,0.00,,,0.00,Wunderground PWS Mod,2013-03-30 23:35:00,
2013-03-30 17:39:00,58.9,20.1,30.03,West,264,2.0,7.0,22,0.00,,,0.00,Wunderground PWS Mod,2013-03-30 23:39:00,
2013-03-30 17:45:00,59.5,20.6,30.01,NNW,340,2.0,4.0,22,0.00,,,0.00,Wunderground PWS Mod,2013-03-30 23:45:00,
2013-03-30 17:50:00,59.6,19.6,30.01,NNW,339,2.0,5.0,21,0.00,,,0.00,Wunderground PWS Mod,2013-03-30 23:50:00,
2013-03-30 17:55:00,59.2,19.2,30.01,NNW,341,7.0,10.0,21,0.00,,,0.00,Wunderground PWS Mod,2013-03-30 23:55:00,
2013-03-30 18:00:00,58.6,18.7,30.03,NNE,28,2.0,4.0,21,0.00,,,0.00,Wunderground PWS Mod,2013-03-31 00:00:00,
2013-03-30 18:05:00,58.9,19.0,30.03,North,356,2.0,4.0,21,0.00,,,0.00,Wunderground PWS Mod,2013-03-31 00:05:00,
2013-03-30 18:10:00,59.2,18.1,30.03,WSW,258,2.0,2.0,20,0.00,,,0.00,Wunderground PWS Mod,2013-03-31 00:10:00,
2013-03-30 18:15:00,59.3,18.2,30.01,West,259,0.0,1.0,20,0.00,,,0.00,Wunderground PWS Mod,2013-03-31 00:15:00,
2013-03-30 18:20:00,59.5,18.3,30.01,NNW,327,1.0,1.0,20,0.00,,,0.00,Wunderground PWS Mod,2013-03-31 00:20:00,
2013-03-30 18:25:00,59.8,18.6,30.01,West,267,0.0,1.0,20,0.00,,,0.00,Wunderground PWS Mod,2013-03-31 00:25:00,
2013-03-30 18:30:00,59.6,19.6,30.01,West,274,2.0,2.0,21,0.00,,,0.00,Wunderground PWS Mod,2013-03-31 00:30:00,
2013-03-30 18:35:00,59.0,17.9,30.01,West,281,2.0,3.0,20,0.00,,,0.00,Wunderground PWS Mod,2013-03-31 00:35:00,
2013-03-30 18:40:00,58.7,18.8,30.01,West,262,3.0,3.0,21,0.00,,,0.00,Wunderground PWS Mod,2013-03-31 00:40:00,
2013-03-30 18:45:00,58.6,18.7,30.01,West,260,2.0,2.0,21,0.00,,,0.00,Wunderground PWS Mod,2013-03-31 00:45:00,
2013-03-30 18:50:00,58.7,19.9,30.01,WSW,248,2.0,3.0,22,0.00,,,0.00,Wunderground PWS Mod,2013-03-31 00:50:00,
2013-03-30 18:55:00,58.7,19.9,30.01,West,270,1.0,2.0,22,0.00,,,0.00,Wunderground PWS Mod,2013-03-31 00:55:00,
2013-03-30 19:00:00,58.4,18.6,30.01,West,266,3.0,3.0,21,0.00,,,0.00,Wunderground PWS Mod,2013-03-31 01:00:00,
2013-03-30 19:05:00,58.3,19.6,30.01,NNW,338,1.0,1.0,22,0.00,,,0.00,Wunderground PWS Mod,2013-03-31 01:05:00,
2013-03-30 19:09:00,58.0,18.2,30.01,West,270,1.0,2.0,21,0.00,,,0.00,Wunderground PWS Mod,2013-03-31 01:09:00,
2013-03-30 19:10:00,58.0,18.2,30.01,NNW,337,1.0,2.0,21,0.00,,,0.00,Wunderground PWS Mod,2013-03-31 01:10:00,
2013-03-30 19:15:00,57.6,17.9,30.00,NNW,345,1.0,3.0,21,0.00,,,0.00,Wunderground PWS Mod,2013-03-31 01:15:00,
2013-03-30 19:20:00,57.5,18.9,30.00,NNW,345,0.0,1.0,22,0.00,,,0.00,Wunderground PWS Mod,2013-03-31 01:20:00,
2013-03-30 19:25:00,57.2,18.6,30.00,NNW,333,3.0,3.0,22,0.00,,,0.00,Wunderground PWS Mod,2013-03-31 01:25:00,
2013-03-30 19:30:00,56.6,19.2,30.01,NNW,347,2.0,3.0,23,0.00,,,0.00,Wunderground PWS Mod,2013-03-31 01:30:00,
2013-03-30 19:35:00,56.0,18.7,30.01,NNW,336,0.0,1.0,23,0.00,,,0.00,Wunderground PWS Mod,2013-03-31 01:35:00,
2013-03-30 19:40:00,55.6,18.3,30.01,NNW,342,3.0,3.0,23,0.00,,,0.00,Wunderground PWS Mod,2013-03-31 01:40:00,
2013-03-30 19:45:00,55.0,17.8,30.03,NNW,342,2.0,2.0,23,0.00,,,0.00,Wunderground PWS Mod,2013-03-31 01:45:00,
2013-03-30 19:49:00,54.7,17.6,30.03,NNW,338,2.0,3.0,23,0.00,,,0.00,Wunderground PWS Mod,2013-03-31 01:49:00,
2013-03-30 19:50:00,54.5,17.4,30.03,NNW,342,3.0,3.0,23,0.00,,,0.00,Wunderground PWS Mod,2013-03-31 01:50:00,
2013-03-30 19:55:00,54.1,18.1,30.03,NNW,342,2.0,3.0,24,0.00,,,0.00,Wunderground PWS Mod,2013-03-31 01:55:00,
2013-03-30 20:00:00,53.2,18.2,30.04,NNW,342,1.0,2.0,25,0.00,,,0.00,Wunderground PWS Mod,2013-03-31 02:00:00,
2013-03-30 20:06:00,51.9,18.0,30.04,NNW,345,3.0,3.0,26,0.00,,,0.00,Wunderground PWS Mod,2013-03-31 02:06:00,
2013-03-30 20:11:00,51.4,18.5,30.04,NNW,333,4.0,6.0,27,0.00,,,0.00,Wunderground PWS Mod,2013-03-31 02:11:00,
2013-03-30 20:16:00,51.6,18.7,29.98,North,358,2.0,3.0,27,0.00,,,0.00,Wunderground PWS Mod,2013-03-31 02:16:00,
2013-03-30 20:21:00,51.3,19.3,29.98,North,357,2.0,3.0,28,0.00,,,0.00,Wunderground PWS Mod,2013-03-31 02:21:00,
2013-03-30 20:26:00,50.8,18.8,29.98,North,354,2.0,3.0,28,0.00,,,0.00,Wunderground PWS Mod,2013-03-31 02:26:00,
2013-03-30 20:31:00,51.3,18.4,30.00,NNW,345,2.0,2.0,27,0.00,,,0.00,Wunderground PWS Mod,2013-03-31 02:31:00,
2013-03-30 20:36:00,51.6,19.5,30.00,North,0,2.0,3.0,28,0.00,,,0.00,Wunderground PWS Mod,2013-03-31 02:36:00,
2013-03-30 20:41:00,51.6,18.7,30.00,North,357,1.0,3.0,27,0.00,,,0.00,Wunderground PWS Mod,2013-03-31 02:41:00,
2013-03-30 20:46:00,51.9,19.8,30.00,NNW,342,4.0,5.0,28,0.00,,,0.00,Wunderground PWS Mod,2013-03-31 02:46:00,
2013-03-30 20:52:00,52.5,19.4,30.00,NNW,342,3.0,4.0,27,0.00,,,0.00,Wunderground PWS Mod,2013-03-31 02:52:00,
2013-03-30 20:54:00,52.6,19.5,30.00,North,0,3.0,4.0,27,0.00,,,0.00,Wunderground PWS Mod,2013-03-31 02:54:00,
2013-03-30 20:57:00,52.6,19.5,30.00,North,358,2.0,3.0,27,0.00,,,0.00,Wunderground PWS Mod,2013-03-31 02:57:00,
2013-03-30 21:02:00,52.6,19.5,30.00,North,8,3.0,6.0,27,0.00,,,0.00,Wunderground PWS Mod,2013-03-31 03:02:00,
2013-03-30 21:07:00,52.3,19.3,30.00,NNE,25,2.0,3.0,27,0.00,,,0.00,Wunderground PWS Mod,2013-03-31 03:07:00,
2013-03-30 21:12:00,51.9,18.9,30.00,NNE,27,3.0,4.0,27,0.00,,,0.00,Wunderground PWS Mod,2013-03-31 03:12:00,
2013-03-30 21:17:00,51.6,18.7,29.96,NNE,29,3.0,6.0,27,0.00,,,0.00,Wunderground PWS Mod,2013-03-31 03:17:00,
2013-03-30 21:22:00,51.6,20.3,29.96,NE,45,5.0,8.0,29,0.00,,,0.00,Wunderground PWS Mod,2013-03-31 03:22:00,
2013-03-30 21:27:00,51.7,21.2,29.96,NNE,14,5.0,10.0,30,0.00,,,0.00,Wunderground PWS Mod,2013-03-31 03:27:00,
2013-03-30 21:32:00,51.7,22.0,29.96,NNE,19,6.0,9.0,31,0.00,,,0.00,Wunderground PWS Mod,2013-03-31 03:32:00,
2013-03-30 21:37:00,51.6,22.7,29.96,NNE,20,5.0,7.0,32,0.00,,,0.00,Wunderground PWS Mod,2013-03-31 03:37:00,
2013-03-30 21:42:00,51.1,23.0,29.96,North,358,6.0,11.0,33,0.00,,,0.00,Wunderground PWS Mod,2013-03-31 03:42:00,
2013-03-30 21:47:00,50.8,22.7,29.96,NNE,33,6.0,9.0,33,0.00,,,0.00,Wunderground PWS Mod,2013-03-31 03:47:00,
2013-03-30 21:52:00,50.4,23.1,29.96,NNE,28,4.0,6.0,34,0.00,,,0.00,Wunderground PWS Mod,2013-03-31 03:52:00,
2013-03-30 21:57:00,49.8,23.2,29.96,NE,42,9.0,9.0,35,0.00,,,0.00,Wunderground PWS Mod,2013-03-31 03:57:00,
2013-03-30 22:00:00,49.8,23.2,29.98,NNE,25,5.0,5.0,35,0.00,,,0.00,Wunderground PWS Mod,2013-03-31 04:00:00,
2013-03-30 22:05:00,49.6,23.7,29.98,NE,40,6.0,6.0,36,0.00,,,0.00,Wunderground PWS Mod,2013-03-31 04:05:00,
2013-03-30 22:10:00,50.1,23.5,29.98,NE,37,6.0,6.0,35,0.00,,,0.00,Wunderground PWS Mod,2013-03-31 04:10:00,
2013-03-30 22:15:00,50.2,23.6,29.97,NNE,14,5.0,7.0,35,0.00,,,0.00,Wunderground PWS Mod,2013-03-31 04:15:00,
2013-03-30 22:20:00,50.1,24.2,29.97,NE,41,5.0,5.0,36,0.00,,,0.00,Wunderground PWS Mod,2013-03-31 04:20:00,
2013-03-30 22:26:00,49.8,23.9,29.97,NNE,17,4.0,4.0,36,0.00,,,0.00,Wunderground PWS Mod,2013-03-31 04:26:00,
2013-03-30 22:31:00,49.5,24.3,29.97,North,5,3.0,4.0,37,0.00,,,0.00,Wunderground PWS Mod,2013-03-31 04:31:00,
2013-03-30 22:36:00,49.4,24.2,29.97,NNE,32,2.0,4.0,37,0.00,,,0.00,Wunderground PWS Mod,2013-03-31 04:36:00,
2013-03-30 22:41:00,49.4,24.2,29.97,NE,38,3.0,4.0,37,0.00,,,0.00,Wunderground PWS Mod,2013-03-31 04:41:00,
2013-03-30 22:46:00,49.5,24.3,29.97,NNE,23,4.0,6.0,37,0.00,,,0.00,Wunderground PWS Mod,2013-03-31 04:46:00,
2013-03-30 22:51:00,49.9,24.0,29.97,NNE,25,4.0,5.0,36,0.00,,,0.00,Wunderground PWS Mod,2013-03-31 04:51:00,
2013-03-30 22:56:00,50.2,24.2,29.97,NNE,30,4.0,5.0,36,0.00,,,0.00,Wunderground PWS Mod,2013-03-31 04:56:00,
2013-03-30 22:59:00,50.2,24.2,29.97,NNE,23,6.0,8.0,36,0.00,,,0.00,Wunderground PWS Mod,2013-03-31 04:59:00,
2013-03-30 23:01:00,50.2,24.2,29.97,NE,43,6.0,7.0,36,0.00,,,0.00,Wunderground PWS Mod,2013-03-31 05:01:00,
2013-03-30 23:06:00,50.4,24.4,29.97,North,11,5.0,7.0,36,0.00,,,0.00,Wunderground PWS Mod,2013-03-31 05:06:00,
2013-03-30 23:11:00,50.2,24.2,29.97,NNE,16,4.0,9.0,36,0.00,,,0.00,Wunderground PWS Mod,2013-03-31 05:11:00,
2013-03-30 23:17:00,49.9,24.0,29.95,NNE,33,5.0,6.0,36,0.00,,,0.00,Wunderground PWS Mod,2013-03-31 05:17:00,
2013-03-30 23:22:00,49.6,24.4,29.95,NNE,30,5.0,7.0,37,0.00,,,0.00,Wunderground PWS Mod,2013-03-31 05:22:00,
2013-03-30 23:27:00,49.2,24.0,29.95,NE,53,6.0,6.0,37,0.00,,,0.00,Wunderground PWS Mod,2013-03-31 05:27:00,
2013-03-30 23:32:00,48.6,24.1,29.95,NNE,23,4.0,5.0,38,0.00,,,0.00,Wunderground PWS Mod,2013-03-31 05:32:00,
2013-03-30 23:37:00,48.0,24.2,29.95,NNE,23,4.0,6.0,39,0.00,,,0.00,Wunderground PWS Mod,2013-03-31 05:37:00,
2013-03-30 23:42:00,47.7,24.5,29.95,NNE,26,5.0,5.0,40,0.00,,,0.00,Wunderground PWS Mod,2013-03-31 05:42:00,
2013-03-30 23:47:00,47.6,25.0,29.96,NNE,30,3.0,4.0,41,0.00,,,0.00,Wunderground PWS Mod,2013-03-31 05:47:00,
2013-03-30 23:52:00,47.9,24.7,29.96,NNE,23,5.0,6.0,40,0.00,,,0.00,Wunderground PWS Mod,2013-03-31 05:52:00,
2013-03-30 23:57:00,48.0,24.8,29.96,NNE,27,2.0,5.0,40,0.00,,,0.00,Wunderground PWS Mod,2013-03-31 05:57:00,